Weather History for Cross City, FL

Change the Weather History Date:

Thursday, September 20, 2012

  Actual Average Record
Temperature  
Mean Temperature 81 °F 78 °F  
Max Temperature 88 °F 88 °F 96 °F (2010)
Min Temperature 73 °F 68 °F 61 °F (2010)
Degree Days  
Heating Degree Days 0 0  
Month to date heating degree days 0 0  
Since 1 July heating degree days 0 0  
Cooling Degree Days 16 13  
Month to date cooling degree days 237 286  
Year to date cooling degree days 2392 2224  
Growing Degree Days 30 (Base 50)    
Moisture  
Dew Point 71 °F    
Average Humidity 81    
Maximum Humidity 93    
Minimum Humidity 55    
Precipitation  
Precipitation 0.00 in 0.12 in 0.46 in (1998)
Month to date precipitation 3.56 3.34  
Year to date precipitation 53.77 38.71  
Sea Level Pressure  
Sea Level Pressure 30.01 in    
Wind  
Wind Speed 3 mph (ENE)    
Max Wind Speed 17 mph    
Max Gust Speed 24 mph    
T = Trace of Precipitation, MM = Missing Value Source: NWS Daily Summary

Daily Weather History Graph

Daily Weather History Graph

Search for Another Location

Airport:

Trip Planner

Search our weather history database for the weather conditions in past years. The results will help you decide how hot, cold, wet, or windy it might be!

Date:

Astronomy

Sep. 20, 2012 Rise Set
Actual Time 7:19 AM EDT 7:30 PM EDT
Civil Twilight 6:56 AM EDT 7:54 PM EDT
Nautical Twilight 6:28 AM EDT 8:22 PM EDT
Astronomical Twilight 6:00 AM EDT 8:50 PM EDT
Moon 12:10 PM EDT (9/20) 10:58 PM EDT (9/20)
Length of Visible Light 12h 58m
Length of Day
12h 10m
Waxing Crescent, 26% of the Moon is Illuminated
Sep 20
Waxing Crescent
Sep 22
First Quarter
Sep 29
Full
Oct 8
Last Quarter
Oct 15
New

Hourly Weather History & Observations

Time (EDT) Temp. Heat Index Dew Point Humidity Pressure Visibility Wind Dir Wind Speed Gust Speed Precip Events Conditions
12:53 AM 75.0 °F - 71.1 °F 87% 30.02 in - Calm Calm - N/A   Unknown
1:53 AM 73.9 °F - 71.1 °F 91% 30.02 in - Calm Calm - N/A   Unknown
2:53 AM 73.9 °F - 71.1 °F 91% 30.00 in - Calm Calm - N/A   Unknown
3:53 AM 73.0 °F - 71.1 °F 93% 29.99 in - Calm Calm - N/A   Unknown
4:53 AM 73.0 °F - 70.0 °F 90% 29.99 in - Calm Calm - N/A   Unknown
5:53 AM 73.0 °F - 71.1 °F 93% 29.99 in - Calm Calm - N/A   Unknown
6:53 AM 73.9 °F - 72.0 °F 93% 30.01 in - Calm Calm - N/A   Unknown
7:53 AM 73.9 °F - 71.1 °F 91% 30.02 in - Calm Calm - N/A   Unknown
8:53 AM 75.2 °F - 71.6 °F 89% 30.04 in - Calm Calm - N/A   Unknown
9:53 AM 77.0 °F - 73.0 °F 88% 30.05 in - East 4.6 mph - N/A   Unknown
10:53 AM 81.0 °F 86.2 °F 73.9 °F 79% 30.06 in - ENE 3.5 mph - N/A   Unknown
11:53 AM 82.0 °F 87.4 °F 73.0 °F 74% 30.05 in - ENE 4.6 mph - N/A   Unknown
12:53 PM 82.9 °F 88.8 °F 73.0 °F 72% 30.03 in - Calm Calm - N/A   Unknown
1:53 PM 87.1 °F 92.8 °F 71.1 °F 59% 30.00 in - Calm Calm - N/A   Unknown
2:53 PM 87.1 °F 92.0 °F 70.0 °F 57% 29.99 in - Calm Calm - N/A   Unknown
3:53 PM 84.9 °F 89.4 °F 70.0 °F 61% 29.98 in - SW 6.9 mph - N/A   Unknown
4:21 PM 77.0 °F - 71.6 °F 83% 29.98 in - NNW 11.5 mph - N/A   Unknown
4:53 PM 81.0 °F 84.4 °F 70.0 °F 69% 29.98 in - NNE 9.2 mph - N/A   Unknown
5:53 PM 78.1 °F - 70.0 °F 76% 29.98 in - NNE 5.8 mph - N/A   Unknown
6:53 PM 79.0 °F - 71.1 °F 77% 29.99 in - NNE 10.4 mph - N/A   Unknown
7:53 PM 75.9 °F - 72.0 °F 87% 30.01 in - Calm Calm - N/A   Unknown
8:53 PM 75.0 °F - 70.0 °F 84% 30.03 in - ENE 5.8 mph - N/A   Unknown
9:53 PM 75.0 °F - 70.0 °F 84% 30.04 in - East 4.6 mph - N/A   Unknown
10:53 PM 73.9 °F - 69.1 °F 85% 30.04 in - SE 4.6 mph - N/A   Unknown
11:53 PM - - - N/A% 30.04 in - Calm Calm - N/A   Unknown